Jackson Hawkins Field, MS

4:15 PM CDT on September 20, 2019 (GMT -0500)
Hawkins

Weather History for KHKS - July, 2019

Change the Weather History Date:

Monday, July 29, 2019

  Actual Average (WUND) Record (WUND)
Temperature  
Mean Temperature 81 °F -  
Max Temperature 92 °F - - (-1)
Min Temperature 70 °F - - (-1)
Cooling Degree Days 16    
Month to date cooling degree days 511  
Year to date cooling degree days 1416  
Since 1 June cooling degree days 959  
Growing Degree Days 32 (Base 50)    
Moisture  
Dew Point 70 °F    
Average Humidity 71    
Maximum Humidity 93    
Minimum Humidity 49    
Precipitation  
Precipitation 0.08 in - - ()
Month to date precipitation 6.29  
Year to date precipitation 35.25  
Sea Level Pressure  
Sea Level Pressure 30.03 in    
Wind  
Wind Speed 3 mph (SW)    
Max Wind Speed 18 mph    
Max Gust Speed 24 mph    
Visibility 10 miles    
Events Rain , Thunderstorm    
Averages and records for this station are not official NWS values.
T = Trace of Precipitation, MM = Missing Value Source: NWS Daily Summary

Daily Weather History Graph

Daily Weather History Graph

Search for Another Location

Airport or City:

Astronomy

Jul. 29, 2019 Rise Set
Actual Time 6:13 AM CDT 8:00 PM CDT
Civil Twilight 5:46 AM CDT 8:27 PM CDT
Nautical Twilight 5:13 AM CDT 9:00 PM CDT
Astronomical Twilight 4:39 AM CDT 9:34 PM CDT
Moon 3:28 AM CDT (7/29) 6:00 PM CDT (7/29)
Length of Visible Light 14h 41m
Length of Day
13h 47m
Waning Crescent, 8% of the Moon is Illuminated
Jul 29
Waning Crescent
Jul 31
New
Aug 7
First Quarter
Aug 15
Full
Aug 23
Last Quarter

Hourly Weather History & Observations

Time (CDT) Temp. Heat Index Dew Point Humidity Pressure Visibility Wind Dir Wind Speed Gust Speed Precip Events Conditions
7:53 AM 75.0 °F - 70.0 °F 84% 30.08 in 10.0 mi Calm Calm - N/A   Clear
8:53 AM 79.0 °F - 71.1 °F 77% 30.09 in 10.0 mi SSW 3.5 mph - N/A   Clear
9:53 AM 82.9 °F 88.0 °F 72.0 °F 69% 30.09 in 10.0 mi West 4.6 mph - N/A   Clear
10:53 AM 84.9 °F 90.1 °F 71.1 °F 63% 30.08 in 10.0 mi West 4.6 mph - N/A   Scattered Clouds
11:09 AM 84.9 °F 90.1 °F 71.1 °F 63% 30.11 in 10.0 mi SSW 6.9 mph - N/A   Mostly Cloudy
11:19 AM 87.1 °F 93.6 °F 72.0 °F 61% 30.10 in 10.0 mi SSE 4.6 mph - N/A   Mostly Cloudy
11:26 AM 86.0 °F 92.2 °F 72.0 °F 63% 30.10 in 10.0 mi WNW 5.8 mph - N/A   Mostly Cloudy
11:45 AM 88.0 °F 94.7 °F 72.0 °F 59% 30.10 in 10.0 mi West 3.5 mph - N/A   Mostly Cloudy
11:53 AM 87.1 °F 92.0 °F 70.0 °F 57% 30.07 in 10.0 mi Calm Calm - N/A   Mostly Cloudy
12:53 PM 88.0 °F 92.1 °F 69.1 °F 53% 30.05 in 10.0 mi Calm Calm - N/A   Scattered Clouds
1:53 PM 90.0 °F 95.4 °F 70.0 °F 52% 30.04 in 10.0 mi South 8.1 mph - N/A   Mostly Cloudy
2:53 PM 88.0 °F 92.9 °F 70.0 °F 55% 30.02 in 10.0 mi SSE 8.1 mph - N/A   Scattered Clouds
3:53 PM 91.0 °F 97.6 °F 71.1 °F 52% 29.99 in 10.0 mi SSW 6.9 mph - N/A   Mostly Cloudy
4:53 PM 90.0 °F 95.4 °F 70.0 °F 52% 29.96 in 10.0 mi SSE 8.1 mph - N/A   Scattered Clouds
5:01 PM 91.0 °F 96.6 °F 70.0 °F 50% 29.99 in 10.0 mi South 6.9 mph - N/A Thunderstorm Scattered Clouds
5:16 PM 90.0 °F 95.4 °F 70.0 °F 52% 29.99 in 10.0 mi SSE 8.1 mph - N/A   Scattered Clouds
5:53 PM 91.0 °F 95.6 °F 69.1 °F 48% 29.96 in 10.0 mi SSW 6.9 mph - N/A   Mostly Cloudy
6:53 PM 87.1 °F 92.0 °F 70.0 °F 57% 29.96 in 10.0 mi WSW 5.8 mph - N/A   Partly Cloudy
7:28 PM 84.9 °F 89.4 °F 70.0 °F 61% 29.99 in 10.0 mi WSW 3.5 mph - N/A Thunderstorm Clear
7:53 PM 84.0 °F 88.4 °F 70.0 °F 63% 29.97 in 10.0 mi Calm Calm - N/A Thunderstorm Thunderstorm
8:16 PM 82.0 °F 86.3 °F 71.1 °F 69% 30.00 in 10.0 mi Calm Calm - N/A Thunderstorm Partly Cloudy
8:38 PM 82.0 °F 86.3 °F 71.1 °F 69% 30.00 in 10.0 mi Calm Calm - N/A   Partly Cloudy
8:53 PM 81.0 °F 85.2 °F 72.0 °F 74% 29.98 in 10.0 mi Calm Calm - N/A   Partly Cloudy
9:53 PM 82.0 °F 85.9 °F 70.0 °F 67% 30.00 in 10.0 mi SSW 10.4 mph - N/A   Scattered Clouds
10:08 PM 82.0 °F 85.5 °F 69.1 °F 65% 30.03 in 10.0 mi WSW 9.2 mph - N/A Thunderstorm Mostly Cloudy
10:23 PM 80.1 °F 82.9 °F 69.1 °F 69% 30.05 in 9.0 mi SSW 17.3 mph 24.2 mph 0.00 in Rain Light Rain
10:41 PM 73.9 °F - 70.0 °F 87% 30.04 in 10.0 mi SSW 9.2 mph - 0.01 in Thunderstorm Mostly Cloudy
10:53 PM 73.9 °F - 71.1 °F 91% 30.02 in 10.0 mi SSW 4.6 mph - 0.01 in   Scattered Clouds
11:32 PM 73.9 °F - 69.1 °F 85% 30.04 in 2.5 mi North 4.6 mph - 0.06 in Rain Rain
11:39 PM 73.0 °F - 70.0 °F 90% 30.04 in 4.0 mi Calm Calm - 0.07 in Rain Rain
11:53 PM 73.9 °F - 71.1 °F 91% 30.02 in 10.0 mi SSW 5.8 mph - 0.07 in Rain Light Rain